Orbital Elements at Epoch 2459200.5 (2020-Dec-17.0) TDB
Reference: JPL 17 (heliocentric ecliptic J2000)
Element | Value | Uncertainty (1-sigma) | Units |
e | .1383037544718025 | 3.7973e-08 | |
a | 2.220853430969834 | 9.7829e-09 | au |
q | 1.913701063335123 | 8.0772e-08 | au |
i | 4.065376748743306 | 4.857e-06 | deg |
node | 320.1804671887744 | 5.5513e-05 | deg |
peri | 127.6843166720053 | 5.8961e-05 | deg |
M | 130.5444466597554 | 1.8605e-05 | deg |
tp | 2458762.136713705618 (2019-Oct-05.63671371) | 6.215e-05 | TDB |
period | 1208.866306487075 3.31 | 7.9877e-06 2.187e-08 | d yr |
n | .2977996806331281 | 1.9677e-09 | deg/d |
Q | 2.528005798604546 | 1.1136e-08 | au |
|
| | Orbit Determination Parameters
Additional Information
|